This is the latest recevied weather packets stored in our database for station/object CA3EVY-3. If no packets are shown the sender has not sent any weather packets the latest 10 day(s).
| Time | Temp. | Humidity | Pressure | Rain* | Wind** | Luminosity | Snow |
|---|---|---|---|---|---|---|---|
| 1777398303 | 22.22° C | 31% | 919.1 hPa | - | - | - | - |
| 1777397404 | 22.22° C | 33% | 919.2 hPa | - | - | - | - |
| 1777396504 | 21.67° C | 33% | 919.6 hPa | - | - | - | - |
| 1777395604 | 20.56° C | 34% | 919.9 hPa | - | - | - | - |
| 1777394704 | 20.56° C | 34% | 919.9 hPa | - | - | - | - |
| 1777393803 | 19.44° C | 35% | 920 hPa | - | - | - | - |
| 1777392904 | 19.44° C | 35% | 920.1 hPa | - | - | - | - |
| 1777392003 | 18.33° C | 37% | 920 hPa | - | - | - | - |
| 1777391103 | 17.78° C | 37% | 920.1 hPa | - | - | - | - |
| 1777390223 | 17.22° C | 38% | 920.3 hPa | - | - | - | - |
| 1777389303 | 17.22° C | 38% | 920.1 hPa | - | - | - | - |
| 1777388404 | 16.67° C | 38% | 920.1 hPa | - | - | - | - |
| 1777387504 | 16.11° C | 38% | 920.1 hPa | - | - | - | - |
| 1777386603 | 15.56° C | 39% | 920 hPa | - | - | - | - |
| 1777385703 | 15.56° C | 39% | 920.2 hPa | - | - | - | - |
| 1777384803 | 15° C | 40% | 920.2 hPa | - | - | - | - |
| 1777383904 | 15° C | 40% | 920.2 hPa | - | - | - | - |
| 1777383004 | 14.44° C | 41% | 920.3 hPa | - | - | - | - |
| 1777382103 | 14.44° C | 41% | 920.4 hPa | - | - | - | - |
| 1777381204 | 13.89° C | 42% | 920.4 hPa | - | - | - | - |
| 1777380303 | 13.89° C | 42% | 920.3 hPa | - | - | - | - |
| 1777379403 | 13.33° C | 41% | 920.4 hPa | - | - | - | - |
| 1777378503 | 13.33° C | 41% | 920.3 hPa | - | - | - | - |
| 1777377604 | 13.89° C | 40% | 920.1 hPa | - | - | - | - |
| 1777376703 | 13.89° C | 40% | 920 hPa | - | - | - | - |
* Rain since midnight (hover to see other rain measurements)
** Current wind speed in m/s (hover to see current wind gust speed)